Flag for India Weather past 2 weeks in Vellore, Tamil Nadu, India

Now
90 °F

Passing clouds.


Feels Like: 100 °F
Forecast: 75 / 90 °F
Wind: 9 mph from Southeast

Location: Madras / Minambakkam

Current Time: Aug 22, 2014 at 4:19:41 PM

Latest Report: Aug 22, 2014 at 3:40 PM


Visibility: 4 mi

Pressure: 29.62 "Hg

Humidity: 63%

Dew point: 75 °F

Location of VelloreLocation

Historic Weather in Vellore — Graph

°F

Vellore temperature yesterday

Maximum temperature yesterday: 93 °F (at 11:40 AM)
Minimum temperature yesterday: 81 °F (at 3:10 AM)
Average temperature yesterday: 86 °F

Past Weeks' High & Low Weather Summary

 TemperatureHumidityPressure
High95 °F (Aug 8, 12:40 PM)94% (Aug 9, 1:40 AM)29.83 "Hg (Aug 9, 1:40 AM)
Low75 °F (Aug 9, 1:40 AM)41% (Aug 8, 2:40 PM)29.56 "Hg (Aug 8, 4:40 PM)
Average85 °F72%29.72 "Hg
* Reported Aug 7 2:40 PM — Aug 22 3:10 PM, Vellore, Weather by CustomWeather, © 2014

Note: Actual official high and low records may vary slightly from our data, if they occured in-between our weather recording intervals... More about our weather records

Advertising

Vellore weather history for previous 24 hours

 ConditionsComfort  
Time TempWeatherWind HumidityBarometerVisibility
3:10 PM
Aug 22
90 °FPassing clouds.9 mph63%29.62 "Hg4 mi
2:40 PM91 °FPassing clouds.9 mph59%29.62 "Hg4 mi
2:10 PM91 °FPassing clouds.9 mph63%29.62 "Hg4 mi
1:40 PM91 °FPassing clouds.12 mph63%29.65 "Hg4 mi
12:40 PM88 °FScattered clouds.12 mph70%29.65 "Hg3 mi
12:10 PM91 °FScattered clouds.12 mph59%29.68 "Hg4 mi
11:40 AM91 °FScattered clouds.10 mph59%29.68 "Hg4 mi
11:10 AM91 °FScattered clouds.7 mph59%29.71 "Hg4 mi
10:40 AM90 °FScattered clouds.9 mph63%29.71 "Hg4 mi
10:10 AM90 °FScattered clouds.7 mph63%29.71 "Hg4 mi
9:40 AM88 °FScattered clouds.9 mph66%29.71 "Hg4 mi
9:10 AM86 °FScattered clouds.9 mph70%29.71 "Hg4 mi
8:40 AM86 °FScattered clouds.9 mph70%29.71 "Hg4 mi
8:10 AM84 °FScattered clouds.10 mph74%29.71 "Hg4 mi
7:40 AM84 °FScattered clouds.9 mph74%29.68 "Hg4 mi
7:10 AM82 °FPassing clouds.8 mph79%29.68 "Hg4 mi
6:40 AM82 °FPassing clouds.6 mph79%29.68 "Hg4 mi
6:10 AM81 °FPassing clouds.5 mph84%29.65 "Hg4 mi
5:40 AM82 °FPassing clouds.6 mph79%29.65 "Hg4 mi
5:10 AM82 °FPassing clouds.No wind79%29.65 "Hg4 mi
4:40 AM82 °FPassing clouds.3 mph79%29.65 "Hg4 mi
4:10 AM82 °FPassing clouds.5 mph79%29.65 "Hg4 mi
3:40 AM82 °FPassing clouds.5 mph79%29.65 "Hg4 mi
3:10 AM82 °FPassing clouds.5 mph79%29.62 "Hg4 mi
2:40 AM82 °FPassing clouds.5 mph84%29.65 "Hg4 mi
2:10 AM82 °FPassing clouds.7 mph84%29.65 "Hg4 mi
1:40 AM82 °FPassing clouds.8 mph84%29.65 "Hg4 mi
1:10 AM82 °FPassing clouds.6 mph84%29.65 "Hg4 mi
12:40 AM82 °FPassing clouds.6 mph84%29.68 "Hg4 mi
12:10 AM82 °FPassing clouds.7 mph84%29.68 "Hg4 mi
11:40 PM
Aug 21
84 °FPassing clouds.9 mph79%29.68 "Hg4 mi
11:10 PM84 °FPassing clouds.8 mph74%29.68 "Hg4 mi
10:40 PM84 °FPassing clouds.9 mph74%29.71 "Hg4 mi
10:10 PM84 °FPassing clouds.9 mph74%29.71 "Hg4 mi
9:40 PM84 °FPassing clouds.9 mph74%29.71 "Hg4 mi
9:10 PM84 °FPassing clouds.9 mph74%29.68 "Hg4 mi
8:40 PM84 °FPassing clouds.12 mph74%29.68 "Hg4 mi
8:10 PM84 °FPassing clouds.12 mph70%29.68 "Hg4 mi
7:40 PM84 °FPassing clouds.13 mph70%29.65 "Hg4 mi
7:10 PM84 °FPassing clouds.14 mph70%29.65 "Hg4 mi
6:40 PM86 °FPassing clouds.8 mph66%29.62 "Hg4 mi
6:10 PM86 °FPassing clouds.9 mph66%29.59 "Hg4 mi
5:40 PM88 °FPassing clouds.13 mph62%29.59 "Hg5 mi
5:10 PM90 °FPassing clouds.12 mph55%29.59 "Hg5 mi
4:40 PM90 °FPassing clouds.9 mph55%29.59 "Hg5 mi
4:10 PM90 °FPassing clouds.9 mph59%29.59 "Hg5 mi
Weather by CustomWeather, © 2014

See weather overviewHow to use our weather pages